Theta_e
309 310 309 309 310 311 312 312 311 309 310 311 311 312 316 318 317 315 315 315 315 314 313 313 313 314 316 319 319 318 317 319 321 323 327 332 332 330 332 336 338 338 339 340 340 341 341 340 340 340 340 340 340 340 340 340 340 339 339 339 339 339 339 339 339 337 334 334 335 336 336 336 335 333 333 333 332 330 329 329 329 329 328 327 327 326 326
312 312 312 312 313 314 315 315 313 311 310 311 311 311 314 316 316 316 315 315 314 313 312 313 312 313 317 318 317 317 318 320 321 322 326 332 335 333 334 337 338 338 340 340 340 341 340 340 340 339 340 340 340 341 340 340 340 339 339 339 339 339 339 339 338 337 336 334 334 335 335 335 333 332 333 333 331 330 330 328 328 328 328 327 326 327 326
314 314 314 314 313 315 316 317 317 314 311 311 311 311 314 316 315 315 315 315 314 312 312 314 314 314 317 318 317 316 319 320 320 321 325 332 337 336 336 337 338 339 339 339 340 340 340 340 340 339 339 340 340 340 340 340 339 339 339 339 339 339 339 339 338 337 337 336 335 334 333 332 331 332 333 333 331 331 331 329 328 328 328 327 326 327 327
314 315 316 314 313 315 315 318 321 317 313 314 314 313 315 315 314 314 315 314 313 312 314 319 320 319 321 322 318 316 319 319 319 321 324 331 337 337 337 338 338 339 340 340 340 340 340 340 339 339 339 340 340 340 340 339 338 338 339 339 339 339 339 339 338 338 338 336 335 334 332 332 332 332 333 332 332 332 331 329 328 328 327 326 327 327 326
314 315 316 314 314 316 317 318 319 317 316 316 315 314 315 315 313 314 315 313 312 314 317 322 325 325 324 322 318 317 318 318 319 321 323 329 336 338 338 339 339 339 339 339 339 339 339 339 339 339 339 340 340 340 339 338 338 338 338 338 338 338 338 338 338 338 337 336 335 334 332 332 333 334 333 332 332 333 331 329 329 328 326 326 326 327 326
316 316 316 315 314 317 319 318 316 316 316 316 314 315 314 314 314 314 314 313 313 316 319 323 327 325 321 319 318 318 318 317 318 319 320 326 335 338 338 338 339 339 340 339 339 339 339 339 339 339 339 339 340 340 339 338 337 337 338 338 338 338 338 339 339 338 336 335 335 334 332 333 333 333 332 332 333 332 329 329 329 328 327 326 327 326 326
317 317 317 316 317 318 319 317 315 317 317 316 317 318 315 316 318 320 320 318 316 315 317 320 323 320 317 317 317 317 318 317 318 319 319 322 329 336 339 338 338 339 339 339 340 339 339 339 339 339 340 339 339 339 338 337 337 337 338 337 338 338 338 338 338 337 336 336 335 334 333 333 333 333 333 334 333 331 329 330 329 328 327 327 327 326 325
316 317 317 317 317 317 316 315 315 317 317 317 319 320 318 318 319 321 322 322 321 320 318 318 319 317 316 317 317 317 318 317 317 319 319 319 323 331 337 338 338 339 339 339 340 339 339 340 339 340 340 339 338 338 338 337 337 337 337 337 337 337 337 337 337 336 336 336 335 334 334 334 334 334 334 334 332 330 330 330 329 328 327 327 326 326 325
315 317 318 317 317 316 315 315 317 318 318 318 319 320 321 319 318 320 322 322 322 322 322 322 322 320 317 318 318 316 317 317 317 317 318 318 319 326 334 337 338 338 339 339 339 339 339 339 339 339 339 338 337 337 337 337 337 337 337 337 337 337 337 337 337 337 337 335 333 334 334 334 335 335 335 333 331 331 331 330 329 328 327 326 326 326 325
315 317 318 318 318 318 315 315 316 317 317 318 317 319 323 322 320 320 321 321 321 322 323 324 324 322 320 320 319 317 316 317 317 317 317 317 317 322 332 338 338 338 339 339 339 339 339 339 339 339 338 337 337 337 337 337 337 338 337 337 337 336 336 337 337 337 336 335 333 334 335 334 335 335 335 332 330 331 331 330 329 328 327 326 326 326 326
316 317 318 318 319 318 316 315 315 316 316 317 318 320 323 322 319 320 321 321 321 321 321 323 324 323 324 322 319 316 317 317 317 317 316 317 318 321 328 336 339 339 338 339 339 339 339 339 338 338 338 337 337 337 337 337 337 337 337 336 336 336 336 336 337 337 337 336 334 334 335 336 335 335 334 332 330 330 330 329 329 328 326 326 326 326 326
316 317 318 318 318 318 317 315 315 315 316 317 318 321 321 319 318 320 320 320 321 321 321 322 324 324 324 321 319 319 320 318 317 317 317 318 321 323 325 331 336 338 338 338 338 338 339 339 338 338 338 337 337 337 337 337 337 337 336 336 335 335 335 336 337 337 337 336 334 334 335 336 336 334 333 332 330 330 330 329 328 327 326 326 326 326 326
316 317 317 317 318 318 317 316 315 316 317 318 319 321 319 318 319 320 320 320 320 321 321 322 323 324 323 322 324 326 325 320 317 318 320 320 323 325 325 327 333 337 338 338 338 338 339 339 338 338 338 337 337 337 337 337 336 336 336 335 335 335 335 336 337 337 337 337 335 334 334 336 335 334 332 332 330 330 330 329 328 327 326 326 327 326 326
316 316 317 318 318 317 316 315 315 316 318 319 319 318 318 318 319 320 320 320 320 321 321 322 323 323 324 325 326 328 328 323 320 321 323 323 325 327 326 325 331 337 338 337 338 338 338 339 338 338 338 338 337 337 337 336 336 335 335 335 335 335 335 335 337 338 337 337 336 334 334 335 334 333 332 332 331 330 329 329 328 327 326 327 327 326 325
316 317 318 319 319 316 315 316 316 316 317 318 317 318 318 318 318 319 320 320 320 321 322 322 323 324 325 326 327 329 329 327 326 326 327 328 328 327 326 327 331 336 338 338 338 338 338 339 339 338 338 337 337 337 337 336 336 336 335 335 335 335 335 335 336 336 336 335 335 334 335 335 334 333 332 332 331 330 329 329 328 327 326 326 326 325 324
316 317 318 319 318 316 315 316 317 316 317 317 317 319 318 317 317 319 320 320 320 321 321 321 323 325 325 326 327 329 330 330 330 329 329 329 329 327 327 328 331 334 336 337 338 339 338 338 339 339 338 337 337 337 337 337 336 336 335 335 335 336 336 336 335 334 334 334 335 335 335 335 333 333 332 331 331 330 329 328 327 327 326 326 326 325 324
316 317 317 317 316 315 315 316 317 317 317 317 318 318 317 317 318 319 319 320 320 321 321 321 323 324 325 325 326 328 329 330 330 330 330 330 330 329 329 329 330 332 334 336 338 338 337 337 338 339 338 337 337 337 337 337 336 335 335 336 336 336 336 335 334 333 334 335 336 335 334 334 333 332 331 331 330 329 328 327 327 327 326 326 325 325 324
314 316 316 315 315 314 314 315 316 317 318 317 317 317 318 318 318 319 319 320 320 320 321 321 323 324 324 325 326 326 327 328 330 331 331 331 331 331 331 331 331 332 333 335 337 337 337 337 337 338 339 338 338 338 337 337 336 336 335 335 336 336 335 335 334 334 335 335 335 334 332 332 332 331 330 330 329 328 328 327 327 327 326 326 325 325 324
314 315 314 313 313 313 313 314 316 317 318 317 317 318 318 318 317 318 319 320 320 321 321 322 323 324 323 324 325 326 327 327 329 331 332 332 332 332 332 332 332 332 332 333 336 337 337 336 336 337 338 338 337 336 336 336 336 335 335 335 336 336 336 335 335 334 334 334 334 333 331 330 330 331 330 329 328 328 328 327 327 326 326 325 325 324 324
313 313 311 310 311 310 311 313 315 316 317 317 318 318 318 318 318 319 319 320 320 321 322 322 323 323 324 324 324 325 327 328 329 329 331 331 331 331 331 331 332 332 332 332 334 336 337 335 334 335 336 336 336 335 335 335 335 335 335 335 335 336 336 335 335 335 335 335 334 332 331 331 331 331 330 329 328 328 328 327 327 326 326 325 325 325 325
310 309 309 308 309 309 310 311 312 312 313 315 318 319 319 319 320 320 320 320 321 321 322 323 323 323 324 324 324 325 327 328 328 329 330 330 331 331 331 331 332 333 333 332 333 335 335 334 333 333 334 335 335 335 335 334 334 334 334 334 335 336 336 335 335 334 334 334 333 331 331 331 331 331 330 329 328 328 328 328 327 327 327 326 326 326 326
308 308 308 307 308 310 310 309 310 310 310 313 317 320 320 319 320 320 319 320 322 322 323 323 323 323 325 325 325 326 327 328 328 329 329 330 330 331 331 331 332 333 333 333 333 333 333 332 332 333 333 334 334 335 335 334 333 333 333 334 335 335 335 335 334 333 332 332 332 331 331 332 331 330 329 328 327 327 327 326 326 326 327 326 326 325 325
308 307 307 307 308 308 309 309 310 310 310 313 317 320 320 319 319 320 319 320 321 322 322 323 323 323 324 325 326 327 328 328 328 328 329 329 330 330 330 331 332 332 332 332 332 332 332 331 332 333 333 333 333 333 334 334 334 333 333 334 335 335 335 335 334 332 331 331 331 331 331 331 330 329 328 327 326 326 325 325 324 325 325 325 325 324 323
306 307 308 308 307 308 309 310 311 312 314 316 319 320 320 319 319 319 319 320 321 321 322 324 324 324 324 325 326 327 327 328 328 328 328 329 329 330 330 331 331 332 332 331 332 332 331 331 331 332 332 333 333 333 333 333 333 332 332 334 334 334 334 334 333 332 331 331 331 331 330 330 329 328 328 327 326 325 324 324 323 323 323 323 323 322 321
307 308 310 310 310 311 311 312 314 316 317 319 320 320 319 319 319 319 320 320 320 321 323 324 325 325 325 325 326 326 327 327 328 328 328 329 329 330 330 330 330 331 330 330 331 331 331 331 331 332 332 333 333 333 332 332 331 332 333 334 334 333 333 332 332 332 331 331 330 329 329 329 328 327 327 327 326 325 325 324 323 322 322 322 321 320 320
310 310 311 312 312 313 313 314 315 316 318 318 319 320 319 318 319 320 319 319 321 322 323 324 325 325 325 326 326 326 327 327 327 326 327 328 329 329 330 329 329 328 328 329 329 329 329 330 331 331 332 332 332 331 330 330 331 332 332 333 333 333 332 331 330 330 329 329 329 328 328 327 327 327 326 326 325 325 325 324 323 323 322 322 321 320 319
311 311 311 312 312 313 313 314 314 315 316 317 318 319 319 319 319 320 319 319 322 323 321 321 324 325 325 326 326 326 326 326 326 325 326 327 328 329 329 329 328 328 328 328 329 329 329 329 330 330 330 329 329 329 329 330 330 331 331 331 331 331 330 329 327 327 327 327 328 328 327 327 327 326 326 325 325 325 324 324 323 323 323 322 321 320 320
310 311 311 311 311 311 312 313 314 315 316 317 318 319 320 320 320 319 319 320 322 323 321 321 324 325 326 326 326 326 325 325 326 326 326 326 328 328 328 328 328 328 328 328 328 328 328 328 328 328 328 327 327 328 330 330 330 330 330 330 329 329 329 328 327 327 327 328 328 327 327 327 326 326 326 325 325 324 324 323 323 322 322 322 321 320 320
309 310 311 311 311 311 312 313 315 315 315 317 318 319 320 320 320 319 319 321 323 323 322 323 325 327 328 328 328 328 327 326 326 326 326 327 328 327 327 328 328 328 328 328 327 327 327 327 327 327 327 328 328 329 330 330 329 330 330 329 329 329 329 329 328 328 328 329 329 328 327 326 326 325 324 324 323 322 322 322 321 321 321 321 320 320 319
308 310 310 310 310 311 312 313 315 316 316 317 319 319 319 319 320 320 321 322 322 322 323 324 325 326 327 327 326 327 329 329 328 327 326 327 327 327 327 328 328 328 328 328 328 328 328 328 328 328 328 329 329 330 330 330 329 330 330 330 330 330 330 329 329 329 329 329 329 328 327 326 325 323 323 322 321 321 320 320 320 320 320 320 319 318 318
308 309 309 309 310 311 312 313 315 317 316 317 319 319 319 319 320 321 321 322 322 322 323 323 323 324 326 326 325 326 327 328 329 328 327 327 327 327 327 328 328 329 329 329 329 329 329 329 329 329 328 329 329 330 330 330 330 330 329 328 329 329 329 329 328 328 328 328 327 326 325 324 323 322 322 321 320 319 319 320 319 319 319 318 318 317 317
307 308 308 309 309 311 312 313 314 316 317 317 319 319 319 319 320 321 321 321 321 321 322 322 323 324 324 325 325 326 326 327 328 328 328 327 327 327 327 327 328 329 330 330 330 330 329 329 329 329 328 328 329 329 329 329 328 327 327 326 326 327 327 327 326 326 326 325 325 324 324 323 322 321 321 319 319 318 319 319 319 318 318 317 317 316 316
306 307 308 308 309 310 311 313 314 316 317 318 318 319 319 319 319 319 320 321 321 321 321 322 323 323 323 323 325 326 326 326 326 327 327 327 327 327 327 327 327 328 329 329 329 330 330 330 329 329 329 329 329 328 329 328 327 326 325 325 325 326 325 325 325 325 324 324 324 323 322 321 320 318 318 317 317 317 317 317 317 316 316 315 315 315 315
305 306 307 307 308 310 311 312 314 315 317 317 318 318 318 319 319 319 319 320 320 321 321 321 321 322 323 323 325 326 326 326 325 325 326 327 327 327 327 326 326 326 327 328 329 329 329 329 329 329 329 329 329 328 327 326 326 325 325 325 325 325 325 325 325 324 323 323 322 321 320 319 318 317 316 315 315 314 314 314 314 314 314 314 314 314 313
305 306 306 307 308 310 311 312 314 315 316 317 317 317 317 318 318 318 318 317 317 318 317 316 316 319 321 323 324 324 325 325 325 324 325 326 326 327 327 326 326 326 326 326 327 327 327 328 328 328 328 328 327 326 325 325 325 325 325 325 325 325 325 324 324 323 322 321 321 320 319 319 318 317 316 315 314 313 313 312 312 312 312 312 312 312 312
305 306 307 308 308 310 311 312 314 315 315 317 317 316 316 316 316 317 317 316 315 314 314 313 312 314 317 321 323 324 324 324 324 324 324 324 325 325 326 326 326 326 326 326 325 325 326 326 327 327 327 327 325 325 324 324 325 325 325 325 324 324 324 323 322 321 320 320 320 319 319 318 318 317 317 316 315 314 313 312 312 311 311 311 311 310 310
305 305 306 307 308 309 311 312 314 314 315 315 315 315 315 315 315 315 316 316 314 313 312 312 312 312 312 316 321 323 324 324 324 324 323 323 324 325 325 325 325 326 326 326 325 325 325 325 325 325 325 325 324 324 324 324 324 324 324 324 323 323 323 322 320 319 319 318 318 319 318 318 318 317 316 316 315 314 314 313 312 311 311 310 310 310 310
304 305 306 306 307 309 310 312 313 314 314 314 314 314 315 315 314 314 314 314 313 312 312 312 313 313 312 313 316 320 323 323 323 323 323 323 324 324 324 324 324 325 325 324 324 324 324 325 324 324 324 324 323 323 323 323 323 322 321 320 320 320 320 320 319 318 318 318 318 318 317 317 317 316 316 315 315 314 314 313 312 311 311 310 310 310 311
303 304 305 306 307 309 310 311 313 314 314 314 314 314 314 314 314 314 314 313 313 312 313 312 312 314 314 312 312 316 321 323 322 322 323 323 323 323 323 324 324 324 323 323 322 322 323 324 324 323 323 323 322 323 323 322 320 318 317 316 316 316 317 318 318 317 317 317 316 316 316 316 316 316 315 315 314 314 313 313 312 311 311 310 310 310 310
302 303 304 305 308 309 310 312 313 314 314 314 314 314 314 314 314 314 314 313 312 312 312 310 310 312 314 313 311 314 320 322 322 321 322 322 322 322 322 322 323 323 322 321 319 320 322 323 323 322 322 322 322 322 323 321 318 317 317 316 316 316 316 315 315 315 315 314 314 313 313 313 314 314 314 314 314 313 313 312 311 311 310 309 309 308 308
302 302 303 305 308 309 310 312 313 314 313 313 314 314 314 314 314 313 312 312 312 311 310 310 311 312 314 313 311 313 318 320 321 321 321 322 322 322 322 322 322 322 321 320 319 319 321 322 321 321 322 322 321 322 322 320 318 318 318 317 316 316 315 315 315 314 313 312 312 311 311 311 311 311 312 313 313 312 312 311 311 310 310 309 308 308 308
301 302 304 306 308 310 311 312 313 313 313 312 313 314 313 313 312 311 310 310 310 309 310 311 311 312 312 312 311 312 315 318 320 320 320 321 321 321 321 321 321 320 320 319 319 319 320 321 320 319 320 320 320 320 321 320 319 319 320 318 317 316 315 315 314 313 312 312 312 311 311 311 310 309 310 311 312 311 311 310 310 310 310 309 309 308 308
301 302 305 307 309 310 311 312 313 313 312 312 312 313 312 311 311 310 310 310 310 310 310 311 311 311 311 311 310 312 314 317 319 319 320 320 320 320 320 320 320 319 319 319 319 319 320 320 320 319 319 318 317 318 319 319 319 319 319 318 317 316 315 315 314 313 313 313 312 311 311 311 310 308 309 311 311 310 310 310 310 309 309 309 308 308 308
302 304 306 308 309 310 310 311 312 312 311 311 311 311 310 310 310 310 310 310 310 311 311 311 311 311 312 312 313 315 317 318 318 318 318 318 318 318 319 319 319 319 318 318 318 319 319 319 319 319 319 317 316 318 318 318 318 318 318 317 317 316 316 315 314 313 313 313 312 312 311 311 309 308 309 310 310 310 310 309 309 309 308 308 308 308 308
303 306 307 309 309 309 310 310 310 310 309 309 309 309 308 309 309 310 310 310 311 311 311 311 311 312 312 314 315 316 316 316 316 316 317 317 317 317 318 318 318 318 317 317 317 318 318 318 318 318 318 317 317 318 318 317 317 317 317 316 316 316 315 315 314 313 313 313 312 312 311 310 309 308 308 308 309 309 310 309 309 309 308 308 308 307 307
305 307 308 308 309 309 309 309 308 308 308 308 308 308 309 309 310 310 310 310 311 310 310 310 311 311 312 312 313 313 313 313 313 314 314 315 316 316 317 316 316 316 316 316 317 317 318 318 317 317 317 317 317 317 317 317 317 316 316 316 315 315 315 314 314 313 313 313 312 312 311 310 309 309 308 307 307 308 308 309 309 309 308 308 307 307 306
306 307 307 308 308 308 308 308 308 308 308 308 308 309 309 309 310 310 310 310 310 310 310 311 311 311 311 311 311 311 311 311 312 312 313 314 314 315 315 315 315 315 315 315 316 316 317 317 316 316 316 315 315 315 315 316 316 316 315 315 314 314 314 314 313 313 313 312 312 311 310 310 309 309 308 307 306 306 306 307 308 308 307 307 306 306 306
306 306 306 307 307 308 308 308 308 308 308 309 309 309 308 309 309 309 309 310 309 309 310 311 311 311 310 310 310 309 309 309 310 311 312 312 313 313 313 313 313 314 314 314 314 315 315 315 315 314 314 313 313 313 314 314 315 315 315 314 313 313 313 313 312 312 312 311 310 309 309 309 309 308 307 307 306 305 305 306 306 306 306 306 305 305 305
304 305 305 307 307 307 307 308 308 308 308 308 308 308 308 308 308 308 308 308 309 309 310 311 310 310 309 309 309 308 308 308 309 309 309 310 311 311 311 312 312 312 312 312 313 313 313 313 312 313 313 313 312 312 313 313 314 314 314 313 312 311 310 310 311 310 310 310 310 309 309 309 308 307 306 306 306 305 305 305 306 306 305 305 304 304 304
303 304 306 307 307 307 308 308 308 308 308 308 308 308 308 308 307 307 307 307 308 309 309 309 308 307 307 306 306 306 307 307 307 308 308 308 308 308 309 309 310 310 311 311 311 311 311 311 311 311 312 312 312 312 313 313 312 312 312 312 311 310 310 310 309 309 308 308 308 308 308 307 307 306 305 305 305 305 306 306 306 305 304 304 303 303 303
301 303 305 306 307 307 308 308 308 308 308 308 308 308 308 308 306 305 305 305 305 305 305 304 304 305 305 305 305 305 306 306 307 307 307 307 307 307 307 307 307 308 309 309 309 309 309 309 310 310 310 311 311 311 312 311 311 311 311 311 311 311 311 310 310 309 309 309 308 308 307 307 306 305 305 305 305 305 305 305 305 304 304 304 303 303 302
299 301 303 305 305 305 305 306 307 308 308 308 308 308 308 307 305 304 304 304 304 304 304 304 305 305 306 306 306 306 306 307 306 306 306 306 307 307 307 307 308 308 308 308 308 309 309 309 309 310 310 310 310 311 311 311 311 311 311 310 310 310 310 310 310 310 310 309 308 307 307 306 306 305 305 305 304 304 304 304 304 304 304 304 303 303 302
Wind_Speed
10 10 12 11 8 7 8 8 8 9 10 9 10 10 8 6 4 7 9 6 8 13 15 14 13 11 9 11 13 13 15 17 20 27 30 26 21 27 36 39 41 44 46 48 50 51 51 51 51 51 51 50 50 49 49 48 47 47 47 46 45 44 43 43 41 37 34 33 34 35 36 35 35 34 32 30 27 26 25 23 23 23 22 21 20 19 19
8 7 9 10 8 6 6 8 8 8 10 11 12 12 8 6 7 9 9 10 13 14 14 14 15 15 14 16 17 14 13 16 21 25 28 24 19 27 34 38 42 43 44 47 49 50 50 50 50 50 50 51 50 49 48 47 46 47 46 46 46 45 44 43 41 39 36 33 32 34 36 35 35 34 32 30 27 26 25 23 22 23 23 21 20 20 19
6 5 7 9 8 6 5 7 7 6 8 9 9 8 6 5 8 10 9 11 13 13 12 11 14 17 15 14 13 11 12 16 20 23 25 21 14 25 31 36 41 41 42 44 46 48 49 50 51 51 51 52 52 50 49 47 47 47 46 46 46 45 45 44 41 40 38 33 31 33 35 34 34 33 32 30 28 27 26 23 22 23 23 22 21 20 18
6 2 4 8 7 5 4 5 6 5 7 7 6 7 7 8 8 8 8 9 10 11 9 7 8 10 8 8 8 9 14 19 20 19 22 20 11 19 26 33 38 39 41 43 45 47 49 50 52 52 53 53 52 51 50 49 48 47 46 47 46 46 45 43 41 41 38 34 33 33 34 33 34 34 32 31 30 28 27 24 23 24 24 22 21 20 18
7 2 4 8 4 1 2 4 4 5 6 5 5 6 8 9 8 6 7 9 10 9 8 7 6 7 6 7 8 11 16 22 21 19 19 18 10 13 20 28 34 39 42 45 48 50 51 52 53 54 54 53 53 53 52 50 48 46 47 47 46 45 44 43 43 42 38 36 34 34 34 33 34 34 32 32 32 30 27 25 25 25 24 22 21 21 18
6 5 5 3 1 1 3 3 2 3 4 4 4 6 9 9 7 6 7 9 10 10 9 8 7 7 8 10 15 19 22 24 23 21 19 15 10 10 16 21 28 36 41 45 49 51 52 54 54 53 53 53 54 53 51 49 47 47 47 46 46 45 44 43 43 40 37 37 36 34 34 34 34 33 32 34 33 29 26 26 27 26 24 22 22 22 19
4 4 4 3 1 3 3 0 4 6 3 4 7 8 6 1 3 7 9 10 13 12 10 9 9 10 12 16 22 28 29 27 24 22 21 16 10 11 17 20 23 29 35 39 43 46 49 50 49 50 51 51 50 49 48 48 47 46 46 46 45 44 44 44 42 39 39 39 36 34 34 36 35 33 33 34 32 28 26 27 27 27 25 24 24 22 18
2 3 3 1 3 3 1 1 3 4 3 5 8 6 1 3 3 8 9 9 10 9 8 8 10 14 17 19 25 32 32 28 23 20 21 18 14 13 18 23 24 28 33 37 41 44 46 47 47 49 50 49 47 46 46 47 46 46 46 45 45 44 44 43 42 41 40 38 35 35 35 36 37 36 35 33 29 28 28 28 28 27 25 25 25 22 17
1 2 2 3 3 3 2 1 2 2 3 4 4 3 2 4 3 6 9 8 8 9 8 12 19 19 14 13 20 27 25 23 23 24 25 22 18 15 18 24 27 27 30 35 40 43 43 45 48 50 49 47 46 45 45 45 45 45 45 45 45 45 44 43 43 43 40 36 34 35 36 36 37 38 36 31 28 29 30 29 30 28 25 25 25 21 16
0 1 3 3 3 3 2 2 2 4 4 6 4 1 3 4 2 9 11 9 9 10 10 16 22 17 8 5 12 22 24 25 29 31 32 29 23 17 15 23 29 30 32 35 39 41 41 43 46 48 47 46 45 44 45 45 45 45 45 45 45 45 44 44 45 44 40 36 35 37 38 38 37 37 35 29 27 29 29 30 30 27 24 25 25 21 16
0 0 2 3 1 2 4 4 7 12 9 6 4 0 2 3 7 14 14 11 11 9 9 14 15 10 5 4 10 22 28 31 33 33 33 32 27 19 15 20 27 32 35 36 37 38 40 41 42 43 44 44 44 45 45 46 45 46 46 46 46 45 45 45 44 44 41 36 33 35 39 40 37 34 31 28 27 27 29 31 29 23 22 26 25 21 18
3 1 1 1 1 3 5 4 11 19 14 4 2 2 3 5 12 16 14 12 12 11 12 13 8 4 6 7 14 25 30 32 35 34 32 29 23 21 20 20 24 28 32 34 35 36 39 40 41 42 42 43 44 45 45 46 46 47 46 46 45 44 44 44 44 43 40 37 35 35 38 40 37 31 27 26 27 27 29 33 28 21 22 27 25 22 22
5 4 2 2 2 4 4 5 14 21 14 2 4 1 6 10 16 17 15 14 15 15 13 9 7 12 17 21 26 28 25 28 33 32 29 26 20 21 24 22 22 25 29 33 37 39 41 42 42 42 41 42 43 44 44 45 46 46 45 44 43 43 43 43 43 42 41 40 39 35 33 35 34 28 25 26 25 26 30 33 28 20 21 27 27 25 25
4 3 1 3 2 2 3 9 16 16 7 1 1 8 13 16 18 19 18 17 18 19 16 12 13 21 28 30 28 21 16 20 26 28 27 24 18 20 24 23 22 26 29 34 38 40 41 41 42 42 43 44 45 45 45 46 46 44 42 41 41 42 42 41 41 42 42 39 36 32 32 36 34 29 27 26 25 25 28 31 27 20 20 25 29 28 26
3 2 2 3 2 4 10 15 11 5 1 3 9 14 17 19 20 21 21 19 18 20 20 18 20 25 28 27 21 14 12 15 18 21 22 17 11 15 22 22 23 27 30 34 38 39 40 41 42 43 44 44 44 45 46 45 43 41 40 40 41 41 41 39 38 37 35 33 33 34 37 39 35 29 27 27 26 25 26 30 29 23 20 24 28 29 27
3 3 3 1 2 9 18 15 6 6 12 15 15 14 15 20 24 22 22 24 23 20 21 22 23 24 25 23 17 12 10 10 11 16 17 11 7 12 21 25 27 28 30 33 36 38 39 41 42 44 45 46 46 46 47 44 41 39 39 39 39 40 39 37 35 34 34 35 37 38 39 39 36 30 25 24 25 25 27 31 29 23 21 24 27 29 29
3 3 6 8 9 16 22 17 12 17 21 18 15 15 16 20 24 23 23 27 27 24 21 20 20 20 22 21 18 14 11 9 10 12 13 10 7 10 17 25 30 30 30 32 34 36 37 38 41 44 46 47 49 49 47 43 40 39 38 38 38 39 38 36 34 35 38 40 41 42 41 39 36 29 23 23 24 24 26 29 27 22 21 24 26 28 31
6 8 11 12 12 18 25 21 15 14 17 17 17 18 18 20 26 26 25 26 27 25 22 19 19 19 19 19 18 17 13 11 12 11 11 10 9 9 13 19 25 29 31 32 33 34 34 35 41 46 48 48 50 49 46 43 41 39 37 37 38 38 37 36 36 38 41 43 43 42 39 36 33 28 23 21 21 20 22 25 26 24 23 24 26 28 30
7 6 8 9 13 21 28 26 18 13 15 18 18 18 18 21 26 28 27 26 25 24 21 19 19 18 17 17 17 16 13 12 14 13 12 13 13 12 12 13 17 22 28 32 34 33 32 34 39 43 44 45 44 41 40 39 38 36 35 35 36 38 37 35 35 37 40 40 40 38 35 32 33 30 25 21 19 19 20 24 26 26 25 26 27 27 26
6 8 12 18 24 26 25 21 19 18 19 22 22 19 17 21 24 25 25 25 24 22 20 18 17 16 15 15 15 14 11 10 12 12 12 13 12 12 12 13 15 19 23 28 33 32 31 34 36 35 36 39 38 35 34 33 31 32 33 33 35 37 37 34 34 36 37 37 36 34 32 31 31 29 25 20 18 16 17 20 23 25 26 26 24 21 20
8 8 12 19 24 24 25 28 30 29 27 29 29 24 20 21 23 24 25 25 23 21 17 15 15 15 13 12 12 11 8 7 9 10 10 10 10 11 12 14 16 18 20 26 30 30 28 29 31 32 34 39 39 37 34 31 30 31 33 32 33 35 35 34 36 38 36 34 31 30 30 30 30 29 26 20 16 14 14 16 18 20 20 19 16 16 18
8 7 14 19 14 12 23 36 41 37 33 32 30 25 21 21 22 25 27 26 24 22 18 14 14 14 12 9 8 8 6 5 7 9 9 9 10 10 11 13 15 16 17 21 25 26 24 24 25 28 32 36 37 36 34 32 30 32 33 33 34 36 35 34 36 36 33 31 30 29 28 28 29 30 29 23 17 14 15 16 17 18 18 16 15 16 18
9 16 26 27 16 12 26 40 43 39 35 32 28 24 22 21 21 23 26 26 25 25 22 15 12 13 11 6 4 4 4 4 6 7 7 7 8 8 8 11 14 15 16 17 19 22 23 22 23 25 28 31 32 32 32 31 30 32 35 34 34 35 36 35 35 32 30 29 29 27 27 27 28 30 28 23 18 16 16 16 17 17 18 18 17 17 17
15 24 33 32 25 24 33 41 39 33 28 26 23 22 21 21 20 21 22 22 23 26 26 19 12 11 9 5 2 2 3 3 3 3 3 3 4 4 4 7 11 14 16 17 18 19 20 20 21 23 26 29 29 28 29 29 28 30 32 30 29 33 35 33 30 27 25 25 25 25 25 25 26 26 23 20 18 18 17 17 17 17 16 16 15 15 14
17 25 31 33 32 31 33 34 30 24 21 20 20 20 20 19 19 18 18 19 21 22 23 20 14 11 9 5 2 2 4 4 3 1 2 1 2 2 3 5 7 10 14 16 17 18 19 19 22 25 28 29 28 28 29 29 26 27 29 28 26 28 30 27 25 23 22 22 22 22 20 20 20 21 19 17 16 15 15 16 16 15 15 14 14 13 12
19 25 32 35 35 34 33 31 26 23 22 21 20 21 19 16 16 18 17 16 17 17 16 16 14 10 8 5 2 1 2 5 5 2 1 2 4 4 4 5 5 7 10 13 16 17 17 18 21 25 28 28 26 26 28 27 24 25 29 29 26 23 23 22 21 20 20 19 18 17 16 16 17 17 16 14 13 13 14 15 15 15 15 14 14 13 12
25 30 32 29 28 33 36 33 28 27 27 25 21 19 17 14 15 17 16 14 13 13 13 13 10 7 5 5 5 4 4 3 4 4 1 2 4 3 2 3 5 8 10 13 15 15 16 17 20 23 25 26 24 23 23 22 22 22 23 23 23 21 20 20 20 19 18 17 15 14 14 14 14 14 14 14 14 14 14 15 15 16 17 15 14 13 13
31 35 32 23 20 29 35 34 29 27 26 23 20 17 16 15 15 16 15 13 11 10 10 9 7 3 5 8 9 8 7 7 5 4 3 4 5 5 5 5 6 8 11 14 15 15 16 18 19 20 23 24 22 19 19 20 24 24 21 18 18 19 17 17 18 18 18 16 15 14 14 14 14 13 13 14 14 14 14 14 15 16 17 17 16 15 15
34 37 37 33 30 32 33 32 29 25 22 21 19 16 14 16 17 16 13 10 8 8 7 6 5 5 9 11 10 10 9 9 8 7 5 5 6 6 7 8 8 9 10 13 15 15 16 18 19 20 22 23 20 19 18 20 24 23 17 14 15 15 14 14 16 17 17 17 17 17 16 15 14 13 13 13 13 12 12 12 13 15 16 18 18 18 16
37 35 37 39 38 37 36 33 31 27 22 20 19 17 14 15 15 12 8 5 6 7 9 10 9 9 10 11 11 12 11 10 10 9 7 5 6 7 7 8 10 12 12 15 17 17 17 17 18 20 21 20 19 19 19 19 19 17 14 13 13 13 12 13 13 13 14 15 17 17 16 15 14 13 12 11 10 9 9 10 10 11 12 14 15 15 14
37 35 36 38 40 40 38 35 31 28 24 19 19 18 16 13 10 8 6 5 6 7 9 10 10 8 9 11 12 11 11 11 10 9 7 5 4 6 6 7 9 12 14 16 17 17 17 17 17 18 19 18 17 17 17 16 16 15 14 13 12 11 11 11 11 10 11 11 12 13 12 12 11 10 10 10 9 9 9 9 9 10 10 10 10 10 11
35 36 37 41 43 43 40 36 32 29 25 21 18 18 16 12 10 8 7 7 7 7 8 9 9 7 7 9 9 9 10 10 10 9 8 7 5 3 4 5 7 9 12 15 16 16 16 16 17 18 18 17 16 16 15 16 17 15 13 13 12 11 11 11 10 10 9 9 10 11 11 10 10 10 11 11 11 10 9 9 10 10 10 9 8 8 9
31 31 32 37 40 40 39 38 33 28 25 21 17 16 15 13 11 9 6 3 4 5 6 8 9 7 4 4 5 7 9 9 9 9 9 8 6 4 2 4 6 8 10 13 15 15 15 15 16 17 18 17 16 16 15 15 14 12 10 11 13 13 13 12 11 10 10 11 11 12 11 10 8 8 9 9 10 10 10 10 9 8 8 7 7 7 8
27 26 28 31 33 32 33 35 33 28 24 20 16 15 16 15 12 8 5 2 2 4 5 8 9 8 4 3 3 5 6 7 8 9 9 8 7 6 3 2 5 8 10 12 13 14 14 14 15 17 17 16 16 14 13 11 10 9 9 12 14 14 14 13 13 12 12 12 12 11 11 10 9 9 9 8 8 8 9 9 9 8 6 6 6 6 7
29 29 29 30 31 31 30 31 29 25 21 18 14 11 12 13 11 8 5 1 3 4 5 7 8 7 6 5 3 2 2 4 6 8 8 8 8 8 7 5 4 6 7 8 10 11 11 11 12 14 15 16 15 12 10 9 9 10 11 13 14 14 14 14 14 13 12 11 11 11 11 10 9 9 9 8 8 8 7 7 8 7 7 7 7 8 8
30 31 30 31 33 33 31 28 25 21 18 17 15 10 8 8 9 8 6 3 4 3 4 6 6 5 4 4 2 2 2 2 3 5 6 7 7 7 7 7 7 6 6 6 7 7 7 7 9 10 13 14 13 10 9 11 11 11 12 13 13 14 14 14 14 13 12 12 11 11 11 10 9 8 8 8 8 7 6 6 6 6 6 8 10 11 11
31 30 30 32 34 33 30 27 24 20 16 16 15 12 9 8 8 8 8 8 6 3 3 5 5 4 3 3 2 3 4 4 3 3 4 5 5 5 4 5 6 7 7 6 7 7 8 8 8 8 9 11 11 9 10 11 12 12 13 13 13 14 14 14 14 14 14 13 12 12 11 11 11 10 8 7 7 7 6 6 5 5 5 6 8 10 11
32 29 29 33 35 32 29 25 22 20 17 15 13 11 10 9 7 7 6 6 5 3 3 4 5 5 5 3 1 3 4 4 3 1 1 2 2 3 4 5 5 6 6 5 5 6 8 9 9 9 10 11 10 9 10 12 14 15 14 14 13 14 14 14 14 14 14 13 12 11 11 11 11 10 9 8 7 7 7 7 7 6 5 5 6 7 8
33 31 32 34 34 30 27 24 21 19 18 16 14 12 10 9 6 5 6 6 4 4 4 4 4 3 3 3 2 1 3 3 3 2 2 1 1 2 3 4 4 5 5 3 2 4 8 10 10 9 10 9 8 7 10 14 17 16 15 14 13 13 12 13 13 13 12 11 10 9 9 9 9 8 8 8 8 8 8 8 8 7 6 6 6 6 7
34 34 35 36 33 29 26 24 22 18 16 15 15 14 13 11 9 8 8 7 5 5 6 6 5 3 1 2 2 1 3 4 4 3 3 2 2 1 1 2 3 3 3 1 1 3 6 8 7 7 9 9 8 8 11 16 17 15 14 13 13 13 13 13 13 12 12 12 11 9 8 7 6 5 7 8 8 8 8 8 7 7 6 4 4 5 6
35 36 35 34 31 26 23 23 21 15 11 12 15 15 16 13 9 7 6 5 4 5 5 4 3 4 3 0 1 1 2 3 5 5 4 3 2 2 2 3 3 3 3 3 3 4 4 4 4 6 9 11 10 9 12 16 17 15 12 11 11 11 12 12 12 13 13 13 11 10 9 8 6 4 3 6 8 9 8 8 8 8 6 3 2 2 2
35 35 33 30 28 24 21 21 18 11 7 8 11 14 15 12 8 5 3 2 2 3 2 0 3 4 3 1 0 0 1 3 4 4 4 4 3 3 3 4 5 6 5 4 4 5 5 4 5 7 8 10 10 11 12 14 14 13 12 11 10 10 10 11 12 14 14 12 10 9 8 6 6 4 0 4 7 8 8 9 10 10 6 3 2 1 1
35 34 31 27 24 22 20 17 13 9 9 9 11 13 13 10 6 4 2 1 2 2 2 2 3 3 2 1 2 1 2 4 5 4 5 5 5 4 5 7 8 8 6 4 4 4 4 5 7 7 7 9 11 12 12 12 12 12 12 11 10 9 10 11 12 13 12 10 8 7 5 4 4 4 2 3 5 6 6 8 10 9 6 3 3 2 2
32 29 26 22 21 21 19 13 8 9 9 9 9 9 8 5 4 3 3 3 4 4 3 3 4 4 4 3 4 5 5 6 6 4 4 5 6 6 6 7 8 7 6 5 3 3 4 5 6 7 7 8 11 12 12 11 12 12 12 11 10 9 10 11 11 11 10 8 6 4 2 2 3 4 3 2 3 4 5 7 8 7 5 4 4 5 5
28 23 20 19 18 16 11 6 7 9 9 10 10 10 8 5 3 4 5 5 6 6 6 6 6 6 6 8 9 9 9 8 7 6 4 4 6 7 7 7 6 5 5 5 4 4 5 6 7 8 9 9 10 10 10 10 11 12 12 11 10 10 10 10 10 10 10 8 5 2 2 3 3 3 2 1 0 1 3 4 5 7 7 6 6 7 7
21 17 16 16 12 6 3 4 7 9 10 10 10 9 7 6 5 4 5 6 6 6 6 7 7 8 9 9 9 10 10 10 10 9 7 5 5 6 7 7 6 5 5 6 6 6 6 7 8 9 9 8 7 7 8 9 11 11 10 9 9 9 10 10 9 9 8 6 4 4 4 4 3 1 1 1 2 3 5 6 7 8 9 8 6 6 8
15 14 15 13 6 4 5 5 6 8 9 8 7 7 8 8 8 8 8 8 8 8 8 9 10 10 9 8 8 8 7 7 8 9 8 6 6 7 7 7 7 6 6 6 7 7 7 8 9 10 9 8 7 7 7 7 8 9 9 8 8 8 9 8 8 7 6 5 5 4 3 3 3 3 2 2 4 5 6 7 8 8 8 7 6 7 8
12 14 13 9 5 7 7 7 7 7 6 5 6 8 10 11 10 10 10 10 10 10 10 11 12 12 11 9 9 8 7 5 6 8 8 7 7 8 7 6 6 6 5 5 6 6 6 7 7 7 7 6 5 5 6 7 7 8 9 8 8 8 7 6 5 5 5 5 5 4 4 5 5 4 2 5 8 8 6 7 7 7 7 7 8 9 9
10 11 9 6 7 8 8 7 6 5 3 4 7 11 12 11 10 10 10 10 11 11 12 12 12 12 10 8 7 6 6 5 5 8 9 8 6 6 6 5 5 4 4 4 4 4 4 4 4 4 5 4 2 3 5 7 6 8 9 9 7 6 6 5 5 4 4 5 5 4 5 5 5 5 6 9 11 8 6 7 7 6 5 6 8 9 9
8 8 6 4 5 7 8 8 7 5 3 4 8 11 11 10 10 11 11 12 13 14 14 13 13 12 11 10 9 8 7 8 9 10 10 9 8 7 6 5 5 5 4 4 3 4 4 3 2 2 3 3 3 4 6 6 6 8 10 10 8 8 9 8 7 6 6 6 5 5 5 6 6 7 7 7 7 6 6 7 7 5 5 7 8 9 10
7 5 2 1 3 4 7 8 8 8 9 9 10 11 11 10 12 14 16 17 18 19 18 18 17 16 15 15 15 14 14 15 15 14 13 12 11 10 10 9 7 6 7 7 8 9 9 8 7 6 5 5 5 6 8 8 8 9 11 10 9 9 9 8 6 6 7 7 6 5 5 5 6 7 6 4 3 4 6 6 6 5 6 7 7 7 8
10 6 5 6 8 8 9 10 12 13 13 14 14 13 12 13 15 19 20 20 21 22 21 21 21 20 18 18 19 18 18 18 17 15 15 15 14 14 14 14 13 13 13 13 14 13 13 12 11 10 10 10 10 10 11 11 11 11 11 11 10 9 8 7 6 7 8 7 6 5 6 6 6 6 4 3 3 3 4 5 5 6 7 7 7 7 8
Wind_Direction
243 249 258 263 253 243 246 241 231 220 214 209 206 220 219 168 174 250 258 267 271 270 277 284 289 293 290 285 288 306 324 327 332 337 330 313 276 228 208 203 201 197 194 193 193 194 195 196 196 196 196 197 197 198 199 201 202 205 208 209 210 212 213 214 217 220 219 216 217 222 224 227 230 231 231 228 223 225 231 234 231 228 225 223 226 229 232
251 233 247 254 245 249 254 245 240 225 213 211 214 222 214 185 211 240 255 270 270 266 270 277 281 280 272 275 290 311 331 338 341 337 330 317 269 222 205 200 200 198 195 193 192 193 194 194 195 195 196 197 197 197 198 199 201 204 207 208 208 211 213 214 217 220 220 219 220 222 223 225 228 229 229 225 222 225 232 235 232 228 225 223 224 227 231
270 229 235 243 234 236 252 259 261 239 217 213 219 226 215 205 233 245 252 266 270 267 267 268 269 269 271 282 300 319 331 340 342 332 329 325 269 218 204 199 198 197 195 193 192 192 193 194 195 196 197 197 197 198 198 198 201 204 206 207 208 211 212 215 218 218 217 219 222 222 222 224 226 227 226 224 223 226 230 234 232 228 227 226 225 225 229
295 249 254 268 251 222 241 280 289 254 216 203 210 218 210 211 231 249 254 258 262 264 271 270 258 262 280 298 305 317 325 333 336 325 326 331 287 220 204 198 195 194 194 193 193 193 194 195 196 197 198 197 197 198 198 200 202 203 205 207 209 211 213 215 216 215 216 220 222 220 219 221 223 225 225 225 225 224 226 232 231 227 228 229 227 227 229
293 299 316 299 303 49 273 266 262 249 237 226 212 209 218 220 218 228 241 245 251 265 277 279 276 286 301 304 306 313 315 317 317 312 322 334 309 233 207 199 196 195 195 196 196 196 196 197 199 199 198 197 199 200 201 201 202 202 203 206 208 210 212 213 213 214 218 220 218 217 217 219 222 223 224 226 224 222 225 230 229 228 231 232 228 227 230
286 306 337 335 38 51 254 237 269 305 281 259 249 239 236 226 214 231 252 257 262 273 277 268 263 274 287 301 309 309 304 302 302 301 310 328 314 249 215 203 202 200 199 200 199 198 199 200 200 200 200 201 202 202 201 201 201 202 202 205 207 209 210 212 213 216 219 217 214 214 216 218 220 223 226 226 222 222 227 229 226 227 232 233 228 226 229
275 314 9 40 229 232 230 340 13 6 343 302 302 283 256 248 325 297 289 282 276 274 270 254 251 277 305 317 313 308 303 299 296 293 295 309 312 256 219 208 208 208 205 204 201 200 200 200 198 198 199 202 200 198 198 200 201 202 202 203 206 207 209 211 213 217 216 213 212 213 215 217 219 223 225 222 220 224 228 227 225 228 234 236 229 225 229
279 333 25 8 277 270 283 48 26 11 347 327 327 320 0 74 332 290 289 291 290 290 279 272 294 319 333 329 311 305 303 302 301 301 297 303 312 281 234 217 214 214 212 209 206 204 202 198 197 199 200 200 198 197 197 199 200 200 200 202 204 206 208 210 213 214 212 210 211 213 214 217 220 222 221 219 222 228 226 223 224 229 236 238 230 225 229
288 309 287 273 311 350 8 64 52 10 322 307 321 318 238 196 219 299 313 314 326 338 332 329 333 334 338 332 309 303 304 306 310 316 314 309 309 296 257 233 225 222 220 216 211 207 204 200 199 201 200 199 198 197 197 198 199 199 200 202 204 206 208 210 211 211 210 210 212 214 214 216 219 220 218 219 226 227 222 221 223 229 238 236 226 224 231
299 312 297 323 11 6 303 289 329 331 294 257 240 239 259 242 326 344 333 326 340 351 346 340 339 333 328 320 295 295 305 313 314 318 320 315 306 292 257 232 227 225 220 217 214 210 206 203 203 202 200 199 198 197 198 198 199 200 201 203 204 206 208 210 210 210 210 210 212 214 214 216 218 218 218 221 225 223 223 224 225 231 239 232 223 225 232
317 121 296 326 8 277 278 295 325 335 322 260 220 33 288 285 348 347 337 331 339 349 340 332 332 324 303 271 277 291 303 310 311 312 316 316 307 289 254 226 224 224 217 212 213 212 208 205 204 203 201 200 198 198 199 200 199 200 202 204 206 208 209 210 211 211 211 210 212 216 217 215 216 218 220 223 223 222 225 224 224 232 237 228 224 228 230
334 357 314 302 226 262 280 299 330 336 328 281 127 46 272 306 343 339 328 320 320 325 325 326 325 289 260 265 289 299 302 302 305 308 311 312 304 287 269 241 227 227 223 216 215 215 213 210 207 205 203 200 199 200 200 200 200 203 205 207 207 208 209 209 210 211 211 211 214 216 217 215 214 217 223 225 222 223 223 220 221 231 232 224 224 229 230
335 347 340 308 274 264 269 315 337 337 330 333 94 117 275 313 327 321 313 306 304 307 306 299 281 274 280 288 297 304 302 295 299 307 309 306 293 277 272 259 236 229 228 225 222 221 219 215 209 206 203 201 201 202 200 200 203 207 208 208 207 208 208 209 210 211 212 214 214 215 218 217 215 217 223 223 221 221 220 217 217 224 226 222 224 229 230
338 341 279 288 296 248 289 328 337 339 341 52 298 288 298 313 315 314 313 305 302 304 294 274 275 285 293 298 299 302 302 294 298 306 305 301 286 264 263 260 241 231 229 227 224 222 219 215 211 208 205 204 204 203 202 204 208 208 206 207 208 208 208 209 210 210 211 212 213 216 219 217 213 214 219 220 219 220 220 219 218 218 221 224 226 228 229
310 309 312 334 339 300 316 330 342 357 353 278 282 292 309 318 315 314 314 307 308 310 303 303 308 305 304 305 299 298 305 300 300 299 293 294 284 253 249 247 234 225 225 223 220 219 217 214 213 211 207 205 204 204 205 208 208 205 205 207 208 208 208 208 209 210 210 212 216 219 220 216 211 211 216 217 217 220 222 220 217 214 218 225 227 229 229
333 346 346 355 233 285 306 317 314 295 301 299 294 297 311 319 318 316 314 313 315 313 306 309 315 310 305 302 295 294 297 285 278 276 272 275 264 234 235 239 232 223 221 221 220 219 216 213 213 212 209 208 208 209 209 208 205 204 206 207 206 206 206 206 208 211 214 218 219 219 219 217 211 208 213 217 217 220 225 222 217 214 221 226 228 230 231
303 278 268 262 264 286 300 303 298 304 309 312 312 304 301 311 317 316 313 313 318 320 315 310 311 307 300 295 292 290 278 246 236 247 250 251 244 227 229 236 236 232 228 223 219 215 213 214 216 214 211 210 209 209 209 206 204 204 205 205 205 206 206 207 210 213 215 216 217 214 215 217 213 207 211 218 218 220 225 223 219 220 227 229 231 233 234
291 266 256 262 283 302 308 309 309 313 320 328 325 309 302 316 324 320 315 315 320 325 323 317 317 313 301 293 294 295 280 242 227 235 239 240 240 235 231 233 236 238 236 229 221 215 215 220 223 219 215 213 211 208 206 204 204 204 204 205 206 207 208 209 212 214 213 213 214 213 212 215 214 210 211 216 215 218 223 222 221 225 230 231 233 237 238
309 298 280 293 309 310 310 312 312 315 325 332 326 310 309 325 328 324 323 325 327 329 328 325 323 316 307 303 301 296 280 248 234 237 241 241 242 241 239 240 241 240 238 233 227 221 217 219 220 218 213 208 205 200 196 196 200 203 205 206 206 205 206 208 213 215 213 213 214 211 208 209 210 210 212 215 216 219 221 220 220 223 228 231 233 237 241
300 286 290 307 312 308 309 315 317 318 321 324 323 321 326 332 330 330 335 337 335 333 330 329 326 318 316 318 309 295 280 254 246 251 252 249 250 247 245 248 245 239 235 229 225 221 214 210 213 214 209 202 199 196 194 196 200 204 207 208 206 204 205 208 212 214 213 215 215 211 206 206 209 209 211 215 221 225 226 223 220 222 226 229 231 235 242
305 286 299 320 324 322 324 325 323 322 323 321 321 326 332 332 333 340 344 341 340 341 338 335 333 325 323 325 314 297 284 267 263 265 259 249 247 245 243 244 240 234 229 222 218 215 211 207 209 212 208 204 203 201 201 203 204 205 208 208 207 206 207 210 212 211 211 213 213 208 206 208 210 211 212 214 221 231 236 234 229 227 229 230 230 234 242
314 308 317 325 329 321 315 314 315 317 319 317 315 319 327 331 339 347 346 341 345 353 355 349 341 336 331 324 309 294 278 264 262 257 250 244 242 238 236 234 226 218 215 215 213 209 207 204 204 201 197 196 197 197 199 202 204 205 205 205 206 206 207 211 213 209 205 204 203 202 205 209 211 214 215 215 221 230 239 241 236 231 229 229 231 241 250
292 296 304 310 310 291 296 304 310 315 318 315 311 315 325 332 340 346 344 341 345 351 353 354 350 344 340 328 306 297 274 255 254 251 251 256 253 247 239 228 216 202 196 199 202 200 199 198 196 192 188 189 192 194 196 201 204 203 201 201 203 205 207 210 210 204 199 199 200 202 207 211 215 215 214 215 220 225 233 240 238 234 232 232 238 248 255
288 298 305 310 308 297 299 307 313 318 323 320 313 317 326 331 335 340 342 344 346 344 345 354 5 355 342 329 298 275 241 228 246 251 255 269 269 262 242 220 213 204 197 196 199 199 195 191 189 187 186 188 192 193 194 198 201 198 196 198 203 207 207 205 201 196 193 196 201 204 208 213 218 217 216 222 226 225 227 232 233 234 238 241 246 252 255
296 307 315 317 312 306 311 320 325 331 336 328 320 324 331 330 330 334 338 347 351 344 340 351 6 1 342 328 299 224 187 166 153 194 236 218 193 213 213 201 200 202 201 199 198 197 193 188 185 184 184 185 188 189 191 193 191 189 192 197 201 203 201 195 189 189 191 194 197 201 204 208 214 217 221 227 229 226 226 225 222 223 229 234 236 237 237
321 326 332 334 332 331 334 334 330 331 334 331 327 332 335 329 328 330 332 341 350 348 347 355 359 350 340 343 2 108 164 153 133 107 287 220 187 191 210 205 189 182 184 185 185 187 188 184 180 180 182 183 186 186 185 183 183 188 197 199 193 183 181 181 181 182 186 190 194 198 202 207 212 217 221 224 224 223 222 218 213 212 216 221 224 226 229
340 343 346 345 339 337 337 333 323 318 320 322 326 334 337 331 326 326 325 330 345 1 8 2 346 330 341 7 29 35 26 53 83 76 36 196 160 142 149 180 175 164 165 169 171 175 180 177 175 177 179 179 181 178 170 167 174 182 186 186 179 170 170 176 177 175 179 188 193 197 202 207 211 215 218 220 221 223 223 221 221 219 217 217 220 223 227
342 345 348 343 325 322 329 333 330 323 318 317 321 328 333 330 324 322 321 327 348 17 21 354 326 336 31 27 26 27 20 22 43 70 107 134 139 130 116 122 146 161 166 165 160 160 167 169 170 175 177 174 172 167 159 163 175 173 161 159 169 173 176 184 188 189 192 198 200 200 203 206 209 214 221 226 230 233 235 236 237 234 230 228 226 227 227
341 342 343 341 335 332 335 339 339 334 325 318 317 320 326 330 329 324 318 324 349 18 21 354 343 37 56 48 39 37 36 32 29 37 68 107 136 144 128 124 138 149 152 148 140 139 151 156 156 162 166 162 155 150 153 168 178 173 160 160 172 177 183 194 201 205 207 210 212 214 216 217 220 226 232 238 244 245 242 238 237 237 238 239 239 238 235
341 341 340 340 342 343 344 344 344 342 334 323 316 316 322 328 330 324 313 323 352 1 5 8 11 24 42 49 49 48 52 51 38 30 43 91 134 145 137 136 141 138 135 134 132 130 137 143 144 146 146 141 137 138 146 161 173 172 168 174 181 185 191 195 199 205 212 217 222 224 225 226 229 233 234 235 235 230 222 218 221 228 238 247 250 247 241
340 340 339 341 345 346 344 344 345 345 342 330 316 313 317 323 322 309 295 313 344 351 1 14 17 11 18 36 48 54 59 61 55 44 39 53 108 137 141 142 140 134 133 136 134 129 126 126 129 132 130 127 131 136 141 155 168 170 169 172 176 185 193 194 194 199 207 217 223 224 225 226 224 218 213 207 200 198 202 206 213 222 230 237 238 233 231
341 340 340 342 344 344 342 341 341 341 342 335 317 308 308 310 309 302 297 313 339 350 1 21 31 24 14 24 39 53 62 66 66 64 59 55 65 99 136 155 153 146 145 146 143 138 132 127 128 133 133 131 135 139 145 156 162 162 161 166 171 178 184 184 182 186 193 203 207 204 203 204 201 196 197 198 198 201 205 209 214 217 217 217 220 225 234
341 338 336 335 336 336 335 334 333 333 335 331 315 302 300 300 299 298 296 309 342 353 7 27 37 37 29 30 41 52 64 72 74 74 75 75 72 69 104 169 173 168 164 161 158 156 153 147 144 146 145 143 145 147 150 157 161 159 162 169 170 169 169 166 166 171 178 182 182 179 179 179 174 170 175 182 188 192 194 196 200 203 204 209 221 234 242
337 332 327 325 326 325 323 324 324 324 324 322 311 297 293 292 285 273 257 262 2 21 29 33 31 27 31 57 60 53 61 71 75 74 75 79 83 82 83 137 174 177 175 172 171 172 173 170 165 159 153 149 148 147 148 156 166 172 173 172 169 166 163 160 160 163 167 168 166 166 167 163 153 148 149 148 151 161 168 173 180 185 192 202 214 221 222
337 335 332 330 330 328 326 325 322 317 312 311 305 291 282 280 271 248 226 232 20 27 27 22 18 13 12 23 45 70 79 73 68 67 68 71 79 87 89 98 134 162 168 170 173 174 173 171 168 162 154 148 145 142 146 155 165 170 170 169 165 161 158 157 158 159 161 164 165 167 166 162 157 156 155 146 138 139 143 150 163 176 188 196 202 207 209
337 337 336 335 334 333 332 330 325 315 303 299 295 280 254 248 245 233 230 278 333 358 14 13 7 359 0 20 54 127 158 124 75 59 57 59 60 69 87 103 119 131 138 149 153 146 133 136 146 150 152 152 148 140 140 147 152 160 165 165 161 159 160 162 163 163 161 161 163 165 167 166 164 165 163 157 153 151 152 159 172 186 193 196 198 199 200
337 336 336 335 333 331 330 330 327 316 300 289 282 268 238 223 235 250 258 267 279 301 8 13 6 1 9 35 97 148 154 139 118 81 56 48 38 33 51 80 103 117 122 125 126 122 121 134 147 155 162 163 156 143 140 145 149 155 159 158 157 160 164 166 167 167 165 164 166 169 171 172 173 173 172 169 166 166 171 180 190 198 199 199 202 201 199
333 334 334 332 330 327 326 328 325 315 299 282 267 250 229 220 240 263 253 240 250 294 347 357 3 12 17 22 81 164 166 161 158 151 67 48 31 15 31 57 77 89 92 97 117 136 143 150 157 161 164 164 157 144 141 146 148 149 151 152 154 159 163 165 166 166 168 172 176 176 174 174 175 176 178 180 181 182 182 180 178 180 187 200 212 213 210
330 331 332 331 328 325 324 325 324 315 298 277 252 233 218 209 207 207 205 215 250 290 300 311 332 356 11 5 2 176 176 171 173 193 204 165 96 43 53 78 83 70 62 69 143 165 157 154 155 158 161 161 154 144 144 146 146 144 142 141 142 146 151 155 157 160 164 168 168 163 161 163 167 173 180 185 186 185 182 175 169 170 182 201 217 222 219
327 328 330 329 325 323 324 324 321 312 295 274 252 228 209 197 195 209 224 240 268 288 292 298 300 283 275 0 4 204 175 149 134 139 151 149 141 115 89 108 98 69 58 86 180 170 157 155 159 164 164 158 150 148 152 150 146 143 141 140 139 140 144 148 152 153 150 143 132 122 117 119 130 154 176 182 182 181 179 174 171 173 179 194 212 215 211
324 325 328 326 321 321 323 322 315 303 281 267 255 231 210 199 199 211 225 240 271 292 300 300 262 212 196 138 20 225 198 159 133 126 123 126 139 159 160 133 109 96 108 146 176 185 174 158 153 165 167 158 149 152 160 158 155 154 153 151 150 150 149 148 146 142 134 123 111 100 92 85 83 99 165 186 186 183 178 172 170 169 167 165 167 162 160
324 325 325 322 319 321 324 318 306 283 243 234 226 205 192 188 185 181 185 218 274 289 298 194 156 163 168 172 178 194 185 173 155 139 134 140 147 159 164 151 138 133 138 147 162 174 175 160 153 164 171 166 158 158 163 166 168 169 169 168 166 160 152 148 145 140 135 127 111 96 85 72 62 54 108 200 192 186 180 174 170 166 163 174 194 164 77
323 324 323 319 317 320 321 310 287 252 222 210 194 178 173 176 174 163 152 136 134 144 144 141 127 102 78 133 189 155 149 169 166 148 135 134 129 132 151 150 139 132 131 132 142 154 158 156 155 157 163 172 176 175 173 173 178 180 180 180 180 167 154 150 149 147 145 134 109 88 77 67 58 56 72 180 182 178 172 168 168 166 167 190 227 252 316
323 322 320 317 317 319 316 299 253 211 194 187 173 159 153 158 176 190 182 147 127 119 106 106 115 104 84 93 117 114 115 132 140 131 129 132 126 124 137 142 134 127 126 129 142 157 152 147 149 148 146 156 170 175 175 178 183 183 181 183 185 178 166 160 156 153 150 136 108 86 92 104 85 76 86 117 156 172 171 170 176 183 191 219 251 270 292
322 320 318 318 318 317 309 264 192 164 145 134 127 123 123 132 172 208 200 165 131 108 84 80 97 113 107 98 97 97 97 99 96 89 95 119 123 123 128 128 122 117 117 119 133 152 145 133 136 143 147 154 164 171 172 173 175 175 177 182 189 187 178 167 160 155 148 137 126 141 178 158 122 101 93 82 26 237 221 211 208 206 210 226 246 264 283
318 315 321 324 318 298 254 201 171 150 135 126 121 120 128 138 150 172 177 158 130 107 87 80 93 111 115 107 100 101 103 104 101 96 93 100 116 125 127 121 113 105 101 102 116 137 144 135 133 138 145 155 166 171 169 169 171 175 181 188 192 187 177 165 159 157 152 146 156 189 197 178 158 160 211 267 274 268 263 253 237 223 219 222 231 251 276
313 313 324 327 304 230 221 226 196 166 152 143 128 119 125 131 130 131 134 129 115 107 106 103 103 106 105 94 82 79 83 94 104 105 102 103 113 119 118 113 111 112 111 114 126 138 143 139 137 140 144 148 149 150 154 163 173 178 179 176 171 166 162 158 158 163 167 172 181 193 207 213 211 206 222 299 305 291 268 252 242 233 228 229 240 259 269
317 320 324 317 263 224 220 217 201 181 163 142 125 126 131 131 124 120 120 117 112 114 119 117 112 108 103 95 85 77 67 66 91 105 107 110 117 120 117 114 114 115 117 126 135 138 135 130 129 132 134 131 130 138 147 153 162 173 174 166 153 147 148 155 166 176 186 193 199 212 233 233 218 207 240 305 311 303 269 242 240 242 239 244 258 265 261
328 324 316 284 245 230 217 208 210 214 200 154 138 139 140 135 126 124 124 121 118 121 123 118 112 109 106 102 101 98 90 90 108 116 114 113 118 123 124 127 130 129 126 124 124 125 126 127 130 135 134 127 128 163 167 163 166 176 177 171 164 160 162 169 178 189 197 204 214 229 239 236 237 256 285 297 304 302 271 236 230 232 237 251 260 256 248
333 318 302 258 233 234 230 223 220 215 191 156 144 144 144 137 126 122 121 118 119 122 123 117 111 108 105 103 105 108 109 111 115 113 109 107 110 115 119 125 136 145 150 150 140 131 128 127 132 148 161 176 200 196 183 177 179 179 176 175 180 185 182 180 188 205 214 215 220 234 243 250 268 288 292 284 278 271 250 229 221 225 248 262 261 249 240
5 340 326 152 165 203 220 212 187 148 124 119 126 136 144 141 127 120 118 118 118 120 121 117 111 105 101 101 102 105 108 110 109 105 100 99 100 103 105 107 110 115 119 121 119 116 114 111 108 111 123 138 156 164 167 172 177 177 175 175 181 183 181 183 197 210 207 201 203 213 226 244 273 293 295 273 248 245 236 225 228 248 261 261 256 248 242
63 73 101 119 122 125 137 147 145 133 122 119 122 133 146 147 133 123 121 122 122 122 121 118 112 107 103 102 103 106 109 111 109 104 98 93 91 94 99 102 104 107 110 112 114 114 114 115 117 121 125 132 139 146 153 159 165 167 168 169 171 172 176 187 199 200 194 193 204 229 245 257 277 290 285 258 243 243 230 223 234 253 256 251 251 253 250